Time,TemperatureF,DewpointF,PressureIn,WindDirection,WindDirectionDegrees,WindSpeedMPH,WindSpeedGustMPH,Humidity,HourlyPrecipIn,Conditions,Clouds,dailyrainin,SoftwareType,DateUTC
2013-01-26 00:06:00,-8.3,-13.0,30.53,NE,49,0.0,0.0,80,0.00,,,0.00,weatherlink.com 1.10,2013-01-26 06:06:00,
2013-01-26 00:21:00,-8.3,-13.0,30.52,NE,48,0.0,0.0,79,0.00,,,0.00,weatherlink.com 1.10,2013-01-26 06:21:00,
2013-01-26 00:36:00,-7.9,-13.0,30.52,ESE,115,0.0,1.0,80,0.00,,,0.00,weatherlink.com 1.10,2013-01-26 06:36:00,
2013-01-26 00:51:00,-7.4,-12.0,30.51,ESE,114,0.0,1.0,80,0.00,,,0.00,weatherlink.com 1.10,2013-01-26 06:51:00,
2013-01-26 01:06:00,-7.4,-12.0,30.50,ESE,113,0.0,1.0,79,0.00,,,0.00,weatherlink.com 1.10,2013-01-26 07:06:00,
2013-01-26 01:21:00,-7.3,-12.0,30.50,SSE,165,0.0,1.0,80,0.00,,,0.00,weatherlink.com 1.10,2013-01-26 07:21:00,
2013-01-26 01:37:00,-6.2,-11.0,30.50,SE,129,0.0,1.0,80,0.00,,,0.00,weatherlink.com 1.10,2013-01-26 07:37:00,
2013-01-26 01:52:00,-5.1,-10.0,30.49,ESE,120,0.0,1.0,80,0.00,,,0.00,weatherlink.com 1.10,2013-01-26 07:52:00,
2013-01-26 02:07:00,-4.3,-9.0,30.48,ESE,105,2.0,2.0,80,0.00,,,0.00,weatherlink.com 1.10,2013-01-26 08:07:00,
2013-01-26 02:22:00,-4.2,-9.0,30.48,ESE,103,1.0,2.0,80,0.00,,,0.00,weatherlink.com 1.10,2013-01-26 08:22:00,
2013-01-26 02:37:00,-3.9,-9.0,30.48,SE,124,0.0,2.0,80,0.00,,,0.00,weatherlink.com 1.10,2013-01-26 08:37:00,
2013-01-26 02:52:00,-3.8,-9.0,30.48,SSE,149,0.0,1.0,80,0.00,,,0.00,weatherlink.com 1.10,2013-01-26 08:52:00,
2013-01-26 03:07:00,-4.1,-9.0,30.47,SSE,162,0.0,2.0,79,0.00,,,0.00,weatherlink.com 1.10,2013-01-26 09:07:00,
2013-01-26 03:22:00,-4.1,-9.0,30.47,ESE,103,0.0,1.0,79,0.00,,,0.00,weatherlink.com 1.10,2013-01-26 09:22:00,
2013-01-26 03:37:00,-4.1,-9.0,30.47,ESE,116,0.0,1.0,79,0.00,,,0.00,weatherlink.com 1.10,2013-01-26 09:37:00,
2013-01-26 03:52:00,-3.9,-9.0,30.46,ESE,117,0.0,1.0,79,0.00,,,0.00,weatherlink.com 1.10,2013-01-26 09:52:00,
2013-01-26 04:07:00,-3.3,-8.0,30.45,SE,124,1.0,1.0,79,0.00,,,0.00,weatherlink.com 1.10,2013-01-26 10:07:00,
2013-01-26 04:22:00,-2.9,-8.0,30.45,SE,133,1.0,2.0,78,0.00,,,0.00,weatherlink.com 1.10,2013-01-26 10:22:00,
2013-01-26 04:37:00,-2.6,-8.0,30.45,SSE,155,1.0,4.0,77,0.00,,,0.00,weatherlink.com 1.10,2013-01-26 10:37:00,
2013-01-26 04:52:00,-2.2,-8.0,30.44,SSE,161,1.0,4.0,76,0.00,,,0.00,weatherlink.com 1.10,2013-01-26 10:52:00,
2013-01-26 05:08:00,-1.7,-8.0,30.44,South,170,1.0,5.0,74,0.00,,,0.00,weatherlink.com 1.10,2013-01-26 11:08:00,
2013-01-26 05:23:00,-1.3,-8.0,30.44,South,187,3.0,4.0,73,0.00,,,0.00,weatherlink.com 1.10,2013-01-26 11:23:00,
2013-01-26 05:38:00,-0.9,-8.0,30.44,SE,130,1.0,6.0,73,0.00,,,0.00,weatherlink.com 1.10,2013-01-26 11:38:00,
2013-01-26 05:53:00,-0.7,-7.0,30.43,ESE,103,2.0,3.0,74,0.00,,,0.00,weatherlink.com 1.10,2013-01-26 11:53:00,
2013-01-26 06:08:00,-0.7,-7.0,30.42,ESE,107,4.0,5.0,74,0.00,,,0.00,weatherlink.com 1.10,2013-01-26 12:08:00,
2013-01-26 06:23:00,-0.6,-7.0,30.41,ESE,118,3.0,5.0,74,0.00,,,0.00,weatherlink.com 1.10,2013-01-26 12:23:00,
2013-01-26 06:38:00,-0.3,-7.0,30.41,ESE,103,2.0,6.0,74,0.00,,,0.00,weatherlink.com 1.10,2013-01-26 12:38:00,
2013-01-26 06:53:00,0.0,-6.0,30.42,East,95,1.0,5.0,74,0.00,,,0.00,weatherlink.com 1.10,2013-01-26 12:53:00,
2013-01-26 07:08:00,0.1,-6.0,30.41,SE,143,5.0,9.0,74,0.00,,,0.00,weatherlink.com 1.10,2013-01-26 13:08:00,
2013-01-26 07:23:00,0.2,-6.0,30.42,SE,134,1.0,8.0,74,0.00,,,0.00,weatherlink.com 1.10,2013-01-26 13:23:00,
2013-01-26 07:38:00,0.2,-7.0,30.42,ESE,121,0.0,6.0,73,0.00,,,0.00,weatherlink.com 1.10,2013-01-26 13:38:00,
2013-01-26 07:53:00,0.4,-6.0,30.41,SSE,168,2.0,4.0,74,0.00,,,0.00,weatherlink.com 1.10,2013-01-26 13:53:00,
2013-01-26 08:08:00,0.4,-6.0,30.41,SE,138,1.0,8.0,73,0.00,,,0.00,weatherlink.com 1.10,2013-01-26 14:08:00,
2013-01-26 08:23:00,0.6,-6.0,30.41,ESE,114,2.0,6.0,74,0.00,,,0.00,weatherlink.com 1.10,2013-01-26 14:23:00,
2013-01-26 08:39:00,0.8,-6.0,30.40,ESE,115,3.0,8.0,74,0.00,,,0.00,weatherlink.com 1.10,2013-01-26 14:39:00,
2013-01-26 08:54:00,1.2,-5.0,30.39,SSW,194,4.0,8.0,74,0.00,,,0.00,weatherlink.com 1.10,2013-01-26 14:54:00,
2013-01-26 09:09:00,1.8,-5.0,30.39,SE,133,4.0,11.0,74,0.00,,,0.00,weatherlink.com 1.10,2013-01-26 15:09:00,
2013-01-26 09:24:00,2.4,-4.0,30.37,SE,139,7.0,13.0,73,0.00,,,0.00,weatherlink.com 1.10,2013-01-26 15:24:00,
2013-01-26 09:39:00,3.0,-4.0,30.36,East,91,3.0,8.0,74,0.00,,,0.00,weatherlink.com 1.10,2013-01-26 15:39:00,
2013-01-26 09:54:00,3.7,-3.0,30.36,SE,134,4.0,10.0,73,0.00,,,0.00,weatherlink.com 1.10,2013-01-26 15:54:00,
2013-01-26 10:09:00,4.4,-3.0,30.35,SSW,204,4.0,11.0,72,0.00,,,0.00,weatherlink.com 1.10,2013-01-26 16:09:00,
2013-01-26 10:24:00,4.9,-3.0,30.36,SSW,205,3.0,12.0,70,0.00,,,0.00,weatherlink.com 1.10,2013-01-26 16:24:00,
2013-01-26 10:39:00,5.5,-3.0,30.36,SSE,148,5.0,14.0,69,0.00,,,0.00,weatherlink.com 1.10,2013-01-26 16:39:00,
2013-01-26 10:54:00,6.2,-2.0,30.37,East,96,2.0,8.0,69,0.00,,,0.00,weatherlink.com 1.10,2013-01-26 16:54:00,
2013-01-26 11:09:00,6.7,-1.0,30.36,SE,137,4.0,9.0,70,0.00,,,0.00,weatherlink.com 1.10,2013-01-26 17:09:00,
2013-01-26 11:24:00,7.3,0.0,30.36,SSE,150,3.0,5.0,71,0.00,,,0.00,weatherlink.com 1.10,2013-01-26 17:24:00,
2013-01-26 11:39:00,8.3,1.0,30.36,SSE,152,5.0,9.0,71,0.00,,,0.00,weatherlink.com 1.10,2013-01-26 17:39:00,
2013-01-26 11:55:00,8.4,1.0,30.34,SE,124,3.0,8.0,70,0.00,,,0.00,weatherlink.com 1.10,2013-01-26 17:55:00,
2013-01-26 12:10:00,8.7,0.0,30.33,SSE,148,1.0,11.0,69,0.00,,,0.00,weatherlink.com 1.10,2013-01-26 18:10:00,
2013-01-26 12:25:00,8.8,1.0,30.32,SE,145,3.0,10.0,69,0.00,,,0.00,weatherlink.com 1.10,2013-01-26 18:25:00,
2013-01-26 12:40:00,9.6,2.0,30.31,ESE,120,5.0,9.0,70,0.00,,,0.00,weatherlink.com 1.10,2013-01-26 18:40:00,
2013-01-26 12:55:00,10.2,2.0,30.31,ESE,117,2.0,7.0,70,0.00,,,0.00,weatherlink.com 1.10,2013-01-26 18:55:00,
2013-01-26 13:10:00,10.9,3.0,30.30,ESE,120,6.0,11.0,69,0.00,,,0.00,weatherlink.com 1.10,2013-01-26 19:10:00,
2013-01-26 13:25:00,11.4,3.0,30.30,SE,132,5.0,14.0,68,0.00,,,0.00,weatherlink.com 1.10,2013-01-26 19:25:00,
2013-01-26 13:40:00,11.9,4.0,30.29,SE,130,5.0,9.0,69,0.00,,,0.00,weatherlink.com 1.10,2013-01-26 19:40:00,
2013-01-26 13:55:00,12.4,4.0,30.28,East,94,3.0,9.0,70,0.00,,,0.00,weatherlink.com 1.10,2013-01-26 19:55:00,
2013-01-26 14:10:00,12.8,5.0,30.27,East,97,3.0,10.0,71,0.00,,,0.00,weatherlink.com 1.10,2013-01-26 20:10:00,
2013-01-26 14:25:00,13.2,5.0,30.27,ESE,104,2.0,6.0,71,0.00,,,0.00,weatherlink.com 1.10,2013-01-26 20:25:00,
2013-01-26 14:40:00,13.7,6.0,30.26,SE,146,2.0,9.0,71,0.00,,,0.00,weatherlink.com 1.10,2013-01-26 20:40:00,
2013-01-26 14:55:00,14.1,7.0,30.25,East,84,2.0,7.0,72,0.00,,,0.00,weatherlink.com 1.10,2013-01-26 20:55:00,
2013-01-26 15:10:00,14.8,7.0,30.25,ESE,114,4.0,10.0,72,0.00,,,0.00,weatherlink.com 1.10,2013-01-26 21:10:00,
2013-01-26 15:26:00,15.4,8.0,30.26,SSE,148,1.0,7.0,72,0.00,,,0.00,weatherlink.com 1.10,2013-01-26 21:26:00,
2013-01-26 15:41:00,15.8,8.0,30.26,East,85,2.0,8.0,72,0.00,,,0.00,weatherlink.com 1.10,2013-01-26 21:41:00,
2013-01-26 15:56:00,16.2,9.0,30.25,ESE,105,1.0,6.0,72,0.00,,,0.00,weatherlink.com 1.10,2013-01-26 21:56:00,
2013-01-26 16:11:00,16.2,8.0,30.25,SE,143,2.0,8.0,71,0.00,,,0.00,weatherlink.com 1.10,2013-01-26 22:11:00,
2013-01-26 16:26:00,16.4,9.0,30.25,East,84,2.0,7.0,72,0.00,,,0.00,weatherlink.com 1.10,2013-01-26 22:26:00,
2013-01-26 16:41:00,16.5,9.0,30.25,ESE,110,2.0,7.0,73,0.00,,,0.00,weatherlink.com 1.10,2013-01-26 22:41:00,
2013-01-26 16:56:00,16.2,9.0,30.25,ESE,113,2.0,7.0,73,0.00,,,0.00,weatherlink.com 1.10,2013-01-26 22:56:00,
2013-01-26 17:11:00,16.0,9.0,30.25,SSE,166,5.0,8.0,73,0.00,,,0.00,weatherlink.com 1.10,2013-01-26 23:11:00,
2013-01-26 17:26:00,15.8,9.0,30.24,SE,146,3.0,8.0,74,0.00,,,0.00,weatherlink.com 1.10,2013-01-26 23:26:00,
2013-01-26 17:41:00,15.4,9.0,30.24,SSE,158,0.0,8.0,74,0.00,,,0.00,weatherlink.com 1.10,2013-01-26 23:41:00,
2013-01-26 17:56:00,14.9,8.0,30.24,SE,139,2.0,5.0,75,0.00,,,0.00,weatherlink.com 1.10,2013-01-26 23:56:00,
2013-01-26 18:11:00,14.6,8.0,30.23,SE,125,1.0,8.0,76,0.00,,,0.00,weatherlink.com 1.10,2013-01-27 00:11:00,
2013-01-26 18:26:00,14.4,8.0,30.22,SE,136,1.0,8.0,76,0.00,,,0.00,weatherlink.com 1.10,2013-01-27 00:26:00,
2013-01-26 18:41:00,14.3,8.0,30.23,SSE,149,1.0,6.0,77,0.00,,,0.00,weatherlink.com 1.10,2013-01-27 00:41:00,
2013-01-26 18:57:00,14.3,9.0,30.23,SE,132,3.0,7.0,78,0.00,,,0.00,weatherlink.com 1.10,2013-01-27 00:57:00,
2013-01-26 19:12:00,14.1,8.0,30.23,SSE,152,2.0,6.0,78,0.00,,,0.00,weatherlink.com 1.10,2013-01-27 01:12:00,
2013-01-26 19:27:00,14.1,8.0,30.24,SE,144,2.0,6.0,78,0.00,,,0.00,weatherlink.com 1.10,2013-01-27 01:27:00,
2013-01-26 19:42:00,14.4,9.0,30.24,South,180,3.0,8.0,78,0.00,,,0.00,weatherlink.com 1.10,2013-01-27 01:42:00,
2013-01-26 19:57:00,14.9,9.0,30.23,SW,222,0.0,6.0,77,0.00,,,0.00,weatherlink.com 1.10,2013-01-27 01:57:00,
2013-01-26 20:12:00,15.0,9.0,30.24,South,172,2.0,7.0,77,0.00,,,0.00,weatherlink.com 1.10,2013-01-27 02:12:00,
2013-01-26 20:27:00,15.0,9.0,30.23,SE,141,0.0,5.0,76,0.00,,,0.00,weatherlink.com 1.10,2013-01-27 02:27:00,
2013-01-26 20:42:00,14.9,9.0,30.22,SSE,152,0.0,6.0,76,0.00,,,0.00,weatherlink.com 1.10,2013-01-27 02:42:00,
2013-01-26 20:57:00,14.7,8.0,30.22,SE,141,0.0,3.0,76,0.00,,,0.00,weatherlink.com 1.10,2013-01-27 02:57:00,
2013-01-26 21:12:00,14.1,8.0,30.22,ESE,122,0.0,1.0,76,0.00,,,0.00,weatherlink.com 1.10,2013-01-27 03:12:00,
2013-01-26 21:27:00,13.6,8.0,30.22,ESE,110,0.0,2.0,78,0.00,,,0.00,weatherlink.com 1.10,2013-01-27 03:27:00,
2013-01-26 21:42:00,13.0,7.0,30.21,SSE,152,1.0,3.0,78,0.00,,,0.00,weatherlink.com 1.10,2013-01-27 03:42:00,
2013-01-26 21:57:00,13.3,8.0,30.21,ESE,117,1.0,2.0,78,0.00,,,0.00,weatherlink.com 1.10,2013-01-27 03:57:00,
2013-01-26 22:12:00,12.5,7.0,30.21,ESE,115,0.0,0.0,78,0.00,,,0.00,weatherlink.com 1.10,2013-01-27 04:12:00,
2013-01-26 22:28:00,11.4,6.0,30.21,ESE,115,0.0,0.0,79,0.00,,,0.00,weatherlink.com 1.10,2013-01-27 04:28:00,
2013-01-26 22:43:00,11.2,6.0,30.21,ESE,114,0.0,0.0,80,0.00,,,0.00,weatherlink.com 1.10,2013-01-27 04:43:00,
2013-01-26 22:58:00,11.2,6.0,30.22,ESE,114,0.0,0.0,81,0.00,,,0.00,weatherlink.com 1.10,2013-01-27 04:58:00,
2013-01-26 23:13:00,10.8,6.0,30.21,ESE,114,0.0,1.0,80,0.00,,,0.00,weatherlink.com 1.10,2013-01-27 05:13:00,
2013-01-26 23:28:00,8.9,4.0,30.21,ESE,108,0.0,1.0,79,0.00,,,0.00,weatherlink.com 1.10,2013-01-27 05:28:00,
2013-01-26 23:43:00,8.7,4.0,30.21,ESE,112,0.0,1.0,81,0.00,,,0.00,weatherlink.com 1.10,2013-01-27 05:43:00,
2013-01-26 23:58:00,8.4,4.0,30.20,ESE,116,0.0,1.0,81,0.00,,,0.00,weatherlink.com 1.10,2013-01-27 05:58:00,